World > North America > United States > Wisconsin
Hourly Weather in Wisconsin Rapids, WisconsinWisconsin Rapids, Wisconsin Hourly Weather

Wisconsin Rapids, WI Hourly Weather

Hourly Weather Wisconsin Rapids, WisconsinHourly Weather in Wisconsin Rapids, WI
Lat: 44.40N, Lon: 89.84W  ICAO: KISW
Web Search
Wisconsin Rapids Weather Warning NWS WEATHER ALERT FOR THE WISCONSIN RAPIDS, WI AREA - Issued: 218 PM CST Mon Dec 6 2021 Wisconsin Rapids Weather Warning  

Ads allow us to feed your daily addiction for the world's greatest weather information. We're determined to offer quality sponsors, in the least annoying way possible.

Feedback

Wisconsin Rapids Hourly Weather

36 Hour Weather Scroll   °F Click to change Wisconsin Rapids hourly weather to Imperial units.Click to change Wisconsin Rapids hourly weather to Metric units. °C
Currently, Clear, temperature is 7°F-14°C, dew point -5°F-21°C, humidity 57%. Wind direction is WNW at 17 mph27 km/h with visibility of 10.00 mi16 km. Barometric pressure is 30.24 in1024 mb.

Dec 06
6:00 PM

Dec 06
7:00 PM

Dec 06
8:00 PM

Dec 06
9:00 PM

Dec 06
10:00 PM

Dec 06
11:00 PM

Dec 07
MIDNIGHT

Dec 07
1:00 AM

Dec 07
2:00 AM

Dec 07
3:00 AM

Dec 07
4:00 AM

Dec 07
5:00 AM

Dec 07
6:00 AM

Dec 07
7:00 AM

Dec 07
8:00 AM

Dec 07
9:00 AM

Dec 07
10:00 AM

Dec 07
11:00 AM

Dec 07
NOON

Dec 07
1:00 PM

Dec 07
2:00 PM

Dec 07
3:00 PM

Dec 07
4:00 PM

Dec 07
5:00 PM

Dec 07
6:00 PM

Dec 07
7:00 PM

Dec 07
8:00 PM

Dec 07
9:00 PM

Dec 07
10:00 PM

Dec 07
11:00 PM

Dec 08
MIDNIGHT

Dec 08
1:00 AM

Dec 08
2:00 AM

Dec 08
6:00 AM

Dec 08
7:00 AM

Dec 08
8:00 AM
Cloudy Cloudy Cloudy Cloudy Cloudy Cloudy Cloudy Cloudy Cloudy Cloudy Cloudy Cloudy Cloudy Cloudy Clear Clear Clear Clear Clear Clear Clear Clear Clear Partly Cloudy Partly Cloudy Partly Cloudy Mostly Cloudy Mostly Cloudy Mostly Cloudy Cloudy Cloudy Cloudy Cloudy Cloudy Cloudy Cloudy
Cloudy Cloudy Cloudy Cloudy Cloudy Cloudy Cloudy Cloudy Cloudy Cloudy Cloudy Cloudy Cloudy Cloudy Clear Clear Clear Clear Clear Clear Clear Clear Clear Partly Cloudy Partly Cloudy Partly Cloudy Mostly Cloudy Mostly Cloudy Mostly Cloudy Cloudy Cloudy Cloudy Cloudy Cloudy Cloudy Cloudy
13°F-11°C 13°F-11°C 14°F-10°C 14°F-10°C 14°F-10°C 14°F-10°C 14°F-10°C 14°F-10°C 13°F-11°C 13°F-11°C 13°F-11°C 12°F-11°C 12°F-11°C 13°F-11°C 14°F-10°C 15°F-9°C 18°F-8°C 21°F-6°C 24°F-4°C 25°F-4°C 26°F-3°C 27°F-3°C 25°F-4°C 24°F-4°C 22°F-6°C 21°F-6°C 19°F-7°C 18°F-8°C 18°F-8°C 18°F-8°C 18°F-8°C 19°F-7°C 20°F-7°C 21°F-6°C 25°F-4°C 28°F-2°C
Snow Snow Snow Snow Snow Snow Snow - - - - - - - - - - - - - - - - - - - - - - - - - - - Snow Snow
48% 37% 37% 37% 37% 37% 37% 6% 6% 6% 6% 6% 6% 0% 0% 0% 0% 0% 0% 0% 0% 0% 0% 0% 0% 0% 0% 0% 0% 0% 0% 4% 4% 4% 41% 41%
9°F-13°C 9°F-13°C 9°F-13°C 9°F-13°C 9°F-13°C 9°F-13°C 9°F-13°C 9°F-13°C 8°F-13°C 8°F-13°C 8°F-13°C 7°F-14°C 7°F-14°C 7°F-14°C 8°F-13°C 8°F-13°C 8°F-13°C 7°F-14°C 7°F-14°C 7°F-14°C 8°F-13°C 8°F-13°C 8°F-13°C 9°F-13°C 9°F-13°C 9°F-13°C 10°F-12°C 10°F-12°C 10°F-12°C 11°F-12°C 11°F-12°C 12°F-11°C 14°F-10°C 15°F-9°C 18°F-8°C 22°F-6°C
84% 84% 80% 80% 80% 80% 80% 80% 80% 80% 80% 80% 80% 76% 77% 73% 64% 54% 48% 46% 46% 44% 48% 52% 57% 59% 67% 70% 70% 74% 74% 74% 77% 77% 74% 78%
SE SE SE SE SE SE SE ESE E E ENE NE NNE NNE NNE NNE SE SSW N N N N SSW S ENE E E ESE ESE SE SE ESE ESE E ESE ESE
4 mph 4 mph 3 mph 3 mph 3 mph 2 mph 2 mph 2 mph 1 mph 1 mph 1 mph 2 mph 2 mph 2 mph 5 mph 5 mph 5 mph 5 mph 5 mph 5 mph 4 mph 4 mph 4 mph 3 mph 3 mph 3 mph 3 mph 3 mph 3 mph 5 mph 5 mph 5 mph 8 mph 8 mph 8 mph 10 mph
5 mi8 km 6 mi10 km 6 mi10 km 10 mi16 km 10 mi16 km 10 mi16 km 10 mi16 km 10 mi16 km 10 mi16 km 10 mi16 km 10 mi16 km 10 mi16 km 10 mi16 km 10 mi16 km 10 mi16 km 10 mi16 km 10 mi16 km 10 mi16 km 10 mi16 km 10 mi16 km 10 mi16 km 10 mi16 km 10 mi16 km 10 mi16 km 10 mi16 km 10 mi16 km 10 mi16 km 10 mi16 km 10 mi16 km 10 mi16 km 10 mi16 km 10 mi16 km 10 mi16 km 10 mi16 km 6 mi10 km 3 mi5 km
Hour (CST)
Weather
Clouds
Temperature
Precip. Type
POP
Dewpoint
Humidity
Wind Direction
Wind Speed
Visibility
POP = Probability of Precipitation. ** Indicates missing data/values from model statistics.

24 Hour Forecast

Afternoon - Blustery. Partly cloudy. Temperatures 7 to 9. Northwest wind 15 to 25 mph. Wind chills to 10 below zero.
Tonight - Much colder. Mostly clear. Lows around 5 below zero. West wind 10 to 15 mph in the evening becoming light and variable. Wind chills to 15 below zero.

48 Hour Forecast API Feed


Mon, Dec 6
6:00 pm

Mon, Dec 6
7:00 pm

Mon, Dec 6
8:00 pm

Mon, Dec 6
9:00 pm

Mon, Dec 6
10:00 pm

Mon, Dec 6
11:00 pm

Tue, Dec 7
Midnight

Tue, Dec 7
1:00 am

Tue, Dec 7
2:00 am

Tue, Dec 7
3:00 am

Tue, Dec 7
4:00 am

Tue, Dec 7
5:00 am

Tue, Dec 7
6:00 am

Tue, Dec 7
7:00 am

Tue, Dec 7
8:00 am

Tue, Dec 7
9:00 am

Tue, Dec 7
10:00 am

Tue, Dec 7
11:00 am

Tue, Dec 7
Noon

Tue, Dec 7
1:00 pm

Tue, Dec 7
2:00 pm

Tue, Dec 7
3:00 pm

Tue, Dec 7
4:00 pm

Tue, Dec 7
5:00 pm

Tue, Dec 7
6:00 pm

Tue, Dec 7
7:00 pm

Tue, Dec 7
8:00 pm

Tue, Dec 7
9:00 pm

Tue, Dec 7
10:00 pm

Tue, Dec 7
11:00 pm

Wed, Dec 8
Midnight

Wed, Dec 8
1:00 am

Wed, Dec 8
2:00 am

Wed, Dec 8
3:00 am

Wed, Dec 8
4:00 am

Wed, Dec 8
5:00 am

Wed, Dec 8
6:00 am

Wed, Dec 8
7:00 am

Wed, Dec 8
8:00 am

Wed, Dec 8
9:00 am

Wed, Dec 8
10:00 am

Wed, Dec 8
11:00 am

Wed, Dec 8
Noon

Wed, Dec 8
1:00 pm

Wed, Dec 8
2:00 pm

Wed, Dec 8
3:00 pm

Wed, Dec 8
4:00 pm

Wed, Dec 8
5:00 pm
Partly CloudyPartly CloudyPartly CloudyClearClearClearClearCloudyOvercastOvercastCloudyPartly CloudyOvercastCloudyOvercastOvercastCloudyOvercastOvercastOvercastLight SnowOvercastModerate SnowOvercastModerate SnowMistModerate SnowModerate SnowHeavy SnowModerate SnowModerate SnowHeavy SnowOvercastCloudyOvercastOvercastOvercastPartly CloudyPartly CloudySunnySunnySunnySunnySunnyPartly CloudySunnySunnyClear
Partly cloudy Partly cloudy Partly cloudy Clear Clear Clear Clear Cloudy Overcast Overcast Cloudy Partly cloudy Overcast Cloudy Overcast Overcast Cloudy Overcast Overcast Overcast Light snow Overcast Moderate snow Overcast Moderate snow Mist Moderate snow Moderate snow Heavy snow Moderate snow Moderate snow Heavy snow Overcast Cloudy Overcast Overcast Overcast Partly cloudy Partly cloudy Sunny Sunny Sunny Sunny Sunny Partly cloudy Sunny Sunny Clear
9°F
-13°C
8°F
-14°C
6°F
-14°C
6°F
-15°C
5°F
-15°C
5°F
-15°C
4°F
-16°C
4°F
-16°C
5°F
-15°C
6°F
-15°C
7°F
-14°C
7°F
-14°C
7°F
-14°C
8°F
-13°C
8°F
-13°C
10°F
-12°C
11°F
-11°C
14°F
-10°C
15°F
-9°C
16°F
-9°C
17°F
-9°C
17°F
-8°C
17°F
-8°C
17°F
-8°C
18°F
-8°C
18°F
-8°C
18°F
-8°C
18°F
-8°C
19°F
-8°C
19°F
-7°C
19°F
-8°C
18°F
-8°C
18°F
-8°C
18°F
-8°C
17°F
-8°C
16°F
-9°C
15°F
-10°C
14°F
-10°C
13°F
-11°C
13°F
-11°C
17°F
-8°C
20°F
-7°C
22°F
-5°C
24°F
-5°C
24°F
-4°C
25°F
-4°C
23°F
-5°C
22°F
-6°C
3°F
-16°C
2°F
-17°C
1°F
-18°C
0°F
-18°C
0°F
-18°C
0°F
-18°C
-0°F
-18°C
-0°F
-18°C
-0°F
-18°C
-0°F
-18°C
0°F
-18°C
-0°F
-18°C
0°F
-18°C
-0°F
-18°C
1°F
-17°C
1°F
-18°C
0°F
-18°C
1°F
-17°C
3°F
-16°C
7°F
-14°C
11°F
-12°C
13°F
-11°C
14°F
-10°C
15°F
-9°C
16°F
-9°C
17°F
-8°C
17°F
-9°C
17°F
-8°C
17°F
-8°C
17°F
-9°C
15°F
-9°C
15°F
-10°C
15°F
-10°C
14°F
-10°C
14°F
-10°C
14°F
-10°C
12°F
-11°C
12°F
-11°C
11°F
-12°C
11°F
-12°C
13°F
-10°C
15°F
-10°C
15°F
-9°C
16°F
-9°C
17°F
-9°C
17°F
-8°C
17°F
-8°C
18°F
-8°C
30.21 in
1023 mb
30.27 in
1025 mb
30.3 in
1026 mb
30.3 in
1026 mb
30.3 in
1026 mb
30.33 in
1027 mb
30.33 in
1027 mb
30.33 in
1027 mb
30.33 in
1027 mb
30.33 in
1027 mb
30.33 in
1027 mb
30.3 in
1026 mb
30.3 in
1026 mb
30.27 in
1025 mb
30.3 in
1026 mb
30.27 in
1025 mb
30.3 in
1026 mb
30.27 in
1025 mb
30.27 in
1025 mb
30.24 in
1024 mb
30.18 in
1022 mb
30.15 in
1021 mb
30.15 in
1021 mb
30.12 in
1020 mb
30.12 in
1020 mb
30.15 in
1021 mb
30.12 in
1020 mb
30.12 in
1020 mb
30.09 in
1019 mb
30.09 in
1019 mb
30.06 in
1018 mb
30.06 in
1018 mb
30.03 in
1017 mb
30.03 in
1017 mb
30.03 in
1017 mb
30 in
1016 mb
30.03 in
1017 mb
30.03 in
1017 mb
30.06 in
1018 mb
30.06 in
1018 mb
30.06 in
1018 mb
30.09 in
1019 mb
30.09 in
1019 mb
30.06 in
1018 mb
30.09 in
1019 mb
30.09 in
1019 mb
30.06 in
1018 mb
30.09 in
1019 mb
76%77%77%78%80%82%83%82%80%77%74%72%73%69%70%65%60%55%57%67%78%82%87%92%94%94%94%94%93%91%88%86%87%87%88%89%91%92%93%91%85%78%75%73%71%72%78%85%
WNWWNWNWNWWNWWNWWNWWNWWNWWNWWWNWWWWSWSWSWSWSWSWSSWSSWSSSSSSSSSSSESSESESEESEEENEENEENEENEENEENEENENENEENEE
15 mph
25 km/h
15 mph
24 km/h
13 mph
22 km/h
12 mph
19 km/h
10 mph
15 km/h
8 mph
13 km/h
7 mph
11 km/h
6 mph
10 km/h
6 mph
10 km/h
6 mph
10 km/h
6 mph
10 km/h
5 mph
8 km/h
4 mph
6 km/h
4 mph
6 km/h
3 mph
5 km/h
4 mph
7 km/h
6 mph
9 km/h
7 mph
11 km/h
7 mph
12 km/h
7 mph
12 km/h
6 mph
10 km/h
5 mph
9 km/h
6 mph
9 km/h
6 mph
9 km/h
5 mph
9 km/h
5 mph
9 km/h
6 mph
9 km/h
6 mph
10 km/h
6 mph
10 km/h
6 mph
10 km/h
6 mph
9 km/h
4 mph
7 km/h
4 mph
6 km/h
3 mph
5 km/h
3 mph
5 km/h
3 mph
5 km/h
3 mph
5 km/h
3 mph
5 km/h
3 mph
5 km/h
4 mph
7 km/h
5 mph
8 km/h
4 mph
7 km/h
4 mph
6 km/h
4 mph
6 km/h
2 mph
3 km/h
2 mph
4 km/h
4 mph
6 km/h
3 mph
5 km/h
0%0%0%0%0%0%0%0%0%0%0%0%0%0%0%0%0%0%0%0%0%0%0%0%0%0%0%0%0%0%0%0%0%0%0%0%0%0%0%0%0%0%0%0%0%0%0%0%
6 mi
10 km
6 mi
10 km
6 mi
10 km
6 mi
10 km
6 mi
10 km
6 mi
10 km
6 mi
10 km
6 mi
10 km
6 mi
10 km
6 mi
10 km
6 mi
10 km
6 mi
10 km
6 mi
10 km
6 mi
10 km
6 mi
10 km
6 mi
10 km
6 mi
10 km
6 mi
10 km
6 mi
10 km
6 mi
10 km
6 mi
10 km
6 mi
10 km
3 mi
5 km
6 mi
10 km
3 mi
5 km
1 mi
2 km
3 mi
5 km
3 mi
5 km
1 mi
2 km
3 mi
5 km
3 mi
5 km
1 mi
2 km
6 mi
10 km
6 mi
10 km
6 mi
10 km
6 mi
10 km
6 mi
10 km
6 mi
10 km
6 mi
10 km
6 mi
10 km
6 mi
10 km
6 mi
10 km
6 mi
10 km
6 mi
10 km
6 mi
10 km
6 mi
10 km
6 mi
10 km
6 mi
10 km

Day/Time
Weather
Condition
Temperature
Dew Point
Pressure
Humidity
Wind Direction
Wind Speed
Prob Precip %
Visibility
Prob Precip % = Probability of Precipitation.